Powrót do katalogu

STARLINK-37538

AktywnyŁącznośćSSO
NORAD 68844·PAYLOAD·🇺🇸 United States

Wystrzelony Apr 26, 2026 z Vandenberg Space Force Base

Loading…

Następne Przeloty (najbliższe 24 godziny)

TLE

ŚwieżeSource: CelesTrak SupGP

Epoka: Sep 14, 2026, 23:16 UTC

1 68844C 26094F   26257.96993056  .00051802  00000+0  16081-2 0  2570
2 68844  97.2836 271.1303 0001482  87.7307  48.0571 15.33412547    12

Śledź STARLINK-37538 w czasie rzeczywistym z AllMySat

Download on the App Store